SV2BZQ-2 Thessalonik GR current weather conditions

sailwx.info

Wind from 311 at 8 knots gusting 20

Air temperature 17.2° C
Dewpoint 11.0° C

Last reported at 2015-May-27 20:44 UTC.
Time now 2015-May-27 22:00 UTC

Location: N 40°41' E 022°51'.
View on Google Maps.

See reports from other nearby stations

  
Tides and Currents Weather Stations Pressure Air Temp Water Temp Dewpoint Dewpoint Depression Visibility Wind Speed Wind Dir Waves Ship Positions
date/time (UTC)wind fromknots sea level pressurealtimeterstation pressurevisibilityair tempwater tempwave heightnotes
2015-May-27 20:44 311 8 gusting 20 17.2
2015-May-27 20:29 321 11 gusting 18 17.8
2015-May-27 20:14 339 9 gusting 19 17.8
2015-May-27 19:59 360 10 gusting 16 18.3
2015-May-27 19:44 341 10 gusting 21 18.3
2015-May-27 19:29 310 10 gusting 19 18.9
2015-May-27 19:14 349 7 gusting 13 19.4
2015-May-27 18:57 305 6 gusting 12 19.4
2015-May-27 18:44 341 4 gusting 12 20.0
2015-May-27 18:27 300 6 gusting 12 20.0
2015-May-27 18:14 317 7 gusting 12 20.0
2015-May-27 17:56 005 4 gusting 12 20.6
2015-May-27 17:41 300 2 gusting 6 20.6
2015-May-27 17:26 295 20.6
2015-May-27 17:11 295 20.6
2015-May-27 16:56 295 20.6
2015-May-27 16:41 295 20.6
2015-May-27 16:26 295 20.6
2015-May-27 16:11 295 20.6
2015-May-27 15:56 294 20.6
2015-May-27 15:41 295 20.6
2015-May-27 15:24 285 0 gusting 7 20.6
2015-May-27 15:09 295 0 gusting 6 20.6
2015-May-27 14:54 288 2 gusting 7 21.1
2015-May-27 14:39 300 21.7
2015-May-27 14:24 263 0 gusting 3 21.7
2015-May-27 14:09 210 21.7
2015-May-27 13:54 207 3 gusting 7 22.2
2015-May-27 13:39 269 6 gusting 14 23.9
2015-May-27 13:24 323 25.6
2015-May-27 13:07 306 0 gusting 4 26.7
2015-May-27 12:52 078 26.7
2015-May-27 12:37 048 27.2
2015-May-27 12:22 287 0 gusting 5 27.2
2015-May-27 12:07 304 0 gusting 7 26.7
2015-May-27 11:54 289 1 gusting 8 26.1
2015-May-27 11:36 360 26.1
2015-May-27 11:21 267 26.1
2015-May-27 11:06 306 1 gusting 6 25.6
2015-May-27 10:51 109 24.4
2015-May-27 10:36 307 0 gusting 9 23.9
2015-May-27 10:20 099 3 gusting 10 23.3
2015-May-27 10:05 058 2 gusting 9 23.3
2015-May-27 09:50 036 1 gusting 10 22.8
2015-May-27 09:42 340 0 gusting 4 22.8
2015-May-27 09:35 052 2 gusting 6 22.2
2015-May-27 09:22 324 5 gusting 7 22.2
2015-May-27 09:21 320 2 gusting 8 22.2
2015-May-27 09:12 335 22.2
2015-May-27 09:05 310 0 gusting 9 21.7
2015-May-27 08:52 303 5 gusting 6 21.7
2015-May-27 08:49 300 4 gusting 9 21.7
2015-May-27 08:34 325 5 gusting 9 21.1
2015-May-27 08:18 308 4 gusting 10 21.7
2015-May-27 08:03 304 5 gusting 8 21.1
2015-May-27 07:48 330 5 gusting 7 21.1
2015-May-27 07:33 294 6 gusting 8 20.6
2015-May-27 07:18 309 5 gusting 10 20.6
2015-May-27 07:07 336 4 gusting 11 20.6
2015-May-26 12:36 230 1 gusting 9 29.4
2015-May-26 12:21 275 0 gusting 5 28.9
2015-May-26 12:07 127 1 gusting 4 27.8
2015-May-26 11:52 158 0 gusting 7 28.3
2015-May-26 11:35 162 0 gusting 4 27.2
2015-May-26 11:20 114 1 gusting 5 27.2
2015-May-26 11:05 159 0 gusting 6 27.2
2015-May-26 10:49 138 0 gusting 6 27.2
2015-May-26 10:34 172 1 gusting 5 27.8
2015-May-26 10:20 210 1 gusting 8 27.2
2015-May-26 10:05 149 0 gusting 6 27.2
2015-May-26 09:51 201 2 gusting 7 27.2
2015-May-26 09:35 204 26.7
2015-May-26 09:19 277 2 gusting 4 25.6
2015-May-26 09:04 312 25.6
2015-May-26 08:48 065 25.0
2015-May-26 08:33 266 1 gusting 7 24.4
2015-May-26 08:17 261 3 gusting 9 23.9
2015-May-26 08:03 286 2 gusting 7 23.3
2015-May-26 07:47 315 22.8
2015-May-26 07:31 279 0 gusting 6 22.8
2015-May-26 07:16 281 3 gusting 9 22.2
2015-May-26 07:02 296 6 gusting 11 22.2
2015-May-26 06:46 311 6 gusting 9 21.7
2015-May-26 06:17 271 5 gusting 8 21.1
2015-May-26 06:01 345 4 gusting 7 20.6
2015-May-26 05:46 315 1 gusting 8 20.0
2015-May-26 05:32 287 1 gusting 7 18.9
2015-May-26 05:14 313 3 gusting 6 17.8
2015-May-26 04:59 325 1 gusting 6 17.2
2015-May-26 04:44 303 16.1
2015-May-26 04:29 296 15.6
2015-May-26 04:15 296 15.0
2015-May-26 04:02 297 15.0
2015-May-26 03:43 297 15.0
2015-May-26 03:28 299 15.0
2015-May-26 03:13 300 15.0
2015-May-26 02:58 298 15.6
2015-May-26 02:42 321 16.1
2015-May-26 02:26 323 16.1
2015-May-26 02:13 323 16.7
2015-May-26 01:56 323 16.7
2015-May-26 01:42 322 16.7
2015-May-26 01:27 323 17.2
2015-May-26 01:11 323 17.2
2015-May-26 00:56 323 17.8
2015-May-26 00:41 323 17.8
2015-May-26 00:25 323 18.3
2015-May-26 00:12 323 18.3
2015-May-25 23:54 323 18.3
2015-May-25 23:42 322 18.9
2015-May-25 23:24 321 18.9
2015-May-25 23:12 321 18.9
2015-May-25 22:54 292 20.0
2015-May-25 22:41 300 0 gusting 2 20.6
2015-May-25 22:25 309 21.1
2015-May-25 22:08 321 21.1